Regional Weather Roundup
Issued by NWS

Home | Current Version | Previous Version | Text Only | Print | Product List | Glossary Off
Versions: 1 2 3 4 5 6 7 8 9 10 11 12 13 14 15 16 17 18 19 20 21 22 23 24 25 26 27

000
ASUS45 KCYS 241010
RWRWY

WYOMING REGIONAL WEATHER ROUNDUP
NATIONAL WEATHER SERVICE CHEYENNE WY
300 AM MST FRI NOV 24 2017

NOTE:  "FAIR" INDICATES FEW OR NO CLOUDS BELOW 12,000 FEET
WITH NO SIGNIFICANT WEATHER AND/OR OBSTRUCTIONS TO VISIBILITY.

WYZ001-241100-
YELLOWSTONE NATIONAL PARK

CITY           SKY/WX    TMP DP  RH WIND       PRES   REMARKS
LK YELLOWSTONE   N/A     39  32  76 W9G17     29.87F WCI  33
W YELLOWSTONE  NOT AVBL

$$
WYZ002>013-054>058-071-098>099-241100-
NORTHERN WYOMING

CITY           SKY/WX    TMP DP  RH WIND       PRES   REMARKS
JACKSON        CLOUDY    49  32  52 SW28G38     N/A
CODY           LGT RAIN  51  36  56 SW14      29.70S
GREYBULL       FAIR      37  32  82 S7        29.68S WCI  32
WORLAND        FAIR      44  34  67 SW12      29.70R
SHERIDAN       FAIR      63  30  28 W31G43    29.55F
BUFFALO        FAIR      59  24  26 VRB7G17   29.63F
GILLETTE       FAIR      56  32  40 SW23      29.59F
HULETT         FAIR      54  32  43 SW9       29.61S
NEWCASTLE      FAIR      37  30  75 E6        29.67F WCI  33

$$
WYZ014>020-022>026-101>103-241100-
CENTRAL WYOMING

CITY           SKY/WX    TMP DP  RH WIND       PRES   REMARKS
BIG PINEY      FAIR      40  32  73 W14       29.97F WCI  32
PINEDALE       PTSUNNY   34  34 100 N3        29.98S
DUBOIS         DRIZZLE   43  32  65 W23G29    29.84S
LANDER         FAIR      55  30  38 SW16G22   29.83S
RIVERTON       FAIR      49  29  46 W12       29.82S
CASPER         FAIR      50  32  50 SW20      29.79F
DOUGLAS        FAIR      57  34  41 W37G43    29.71F

$$
WYZ021-027>030-104>119-241100-
SOUTHERN WYOMING

CITY           SKY/WX    TMP DP  RH WIND       PRES   REMARKS
EVANSTON       FAIR      44  31  60 SW7       30.03F
KEMMERER       FAIR      39  32  75 SW12      30.03R WCI  32
FORT BRIDGER   FAIR      47  31  55 W15       30.04F
ROCK SPRINGS   FAIR      42  31  64 SW7       30.01F
DIXON          PTSUNNY   48  28  47 S13G21    30.07S
RAWLINS        LGT RAIN  44  32  62 W21G31    29.96F
SARATOGA       FAIR      41  30  65 S9G16     30.02S
LARAMIE        FAIR      44  30  57 SW17      29.94F
CHEYENNE       FAIR      54  30  40 W15G23    29.86F
TORRINGTON     FAIR      60  35  39 W20       29.74F
PINE BLUFFS    FAIR      54  30  40 W13G21    29.86R

$$




USA.gov is the U.S. government's official web portal to all federal, state and local government web resources and services.